Latest Coastal Weather Observations for Willis Island

IDQ60701

Issued at 4:42 pm EST Tuesday 12 December 2017 (issued every 10 minutes, with the page automatically refreshed every 10 minutes)

About coastal observations | Map of coastal stations | Coastal observations for QLD | Marine services | Other Formats
Station Details ID: 200283 Name: WILLIS ISLAND Lat: -16.29 Lon: 149.97 Height: 9.29 m
Data from the previous 72 hours. | See also: Recent months at Willis Island
Date/Time
EST
Temp
°C
Wind Pressure Rain since
9am
mm
Weather Cloud Vis
km
Sea
Height
m
Swell
Dir  Spd
kts
Gust
kts
hPa Trend Height
m
Period
s
Dir
12/04:30pm 28.7 SSE 18 21 1008.1 - 0.0 - - - - - - -
12/04:00pm 28.8 SSE 18 21 1008.0 - 0.0 - - - - - - -
12/03:30pm 29.1 SSE 18 21 1008.2 - 0.0 - - - - - - -
12/03:00pm 29.5 SSE 19 22 1008.3 F 0.0 Fine Partly cloudy 30 2 1.9 8 SE
12/02:30pm 29.3 SE 18 20 1008.5 - 0.0 - - - - - - -
12/02:00pm 30.2 SSE 19 22 1008.7 - 0.0 - - - - - - -
12/01:30pm 29.9 SSE 19 23 1009.0 - 0.0 - - - - - - -
12/01:00pm 29.3 SE 19 23 1009.2 - 0.0 - - - - - - -
12/12:30pm 30.5 SE 17 19 1009.5 - 0.0 - - - - - - -
12/12:00pm 30.0 SE 18 20 1009.8 F 0.0 Fine Partly cloudy 30 2 1.9 8 SE
12/11:30am 29.9 SE 17 20 1009.9 - 0.0 - - - - - - -
12/11:00am 30.1 SE 18 20 1010.3 - 0.0 - - - - - - -
12/10:30am 30.0 SE 17 21 1010.6 - 0.0 - - - - - - -
12/10:00am 30.3 SE 16 20 1010.8 - 0.0 - - - - - - -
12/09:30am 29.8 SE 17 21 1010.9 - 0.0 - - - - - - -
12/09:00am 29.3 SE 17 21 1010.9 S 0.0 Fine Partly cloudy 30 2 1.9 8 SE
12/08:30am 28.7 SE 19 22 1010.7 - 0.0 - - - - - - -
12/08:00am 28.4 SE 18 21 1010.5 - 0.0 - - - - - - -
12/07:30am 28.1 SE 19 22 1010.2 - 0.0 - - - - - - -
12/07:00am 27.7 SE 19 23 1009.9 - 0.0 - - - - - - -
12/06:30am 27.0 SE 19 23 1009.7 - 0.0 - - - - - - -
12/06:00am 26.8 SE 18 21 1009.6 R 0.0 Fine Partly cloudy 30 2 1.9 7 SE
12/05:30am 26.6 SE 19 22 1009.0 - 0.0 - - - - - - -
12/05:00am 26.5 SE 19 21 1008.7 - 0.0 - - - - - - -
12/04:30am 26.6 SE 20 23 1008.5 - 0.0 - - - - - - -
12/04:00am 26.5 SE 21 24 1008.1 - 0.0 - - - - - - -
12/03:30am 26.7 SE 20 24 1007.9 - 0.0 - - - - - - -
12/03:00am 26.7 SE 20 24 1008.0 F 0.0 - - - - - - -
12/02:30am 26.7 SE 18 22 1008.0 - 0.0 - - - - - - -
12/02:00am 26.6 SE 19 22 1008.4 - 0.0 - - - - - - -
12/01:30am 26.6 SE 19 23 1008.9 - 0.0 - - - - - - -
12/01:00am 26.7 SE 20 23 1009.0 - 0.0 - - - - - - -
12/12:30am 26.7 SE 19 21 1009.4 - 0.0 - - - - - - -
12/12:00am 26.9 SE 19 23 1009.9 R 0.0 - - - - - - -
 
Date/Time
EST
Temp
°C
Wind Pressure Rain since
9am
mm
Weather Cloud Vis
km
Sea
Height
m
Swell
Dir  Spd
kts
Gust
kts
hPa Trend Height
m
Period
s
Dir
11/11:30pm 26.9 SE 20 24 1010.1 - 0.0 - - - - - - -
11/11:00pm 27.0 SE 21 25 1010.5 - 0.0 - - - - - - -
11/10:30pm 27.0 SE 21 24 1010.6 - 0.0 - - - - - - -
11/10:00pm 27.1 SE 21 24 1010.6 - 0.0 - - - - - - -
11/09:30pm 27.1 SE 22 28 1010.5 - 0.0 - - - - - - -
11/09:00pm 27.1 SE 22 26 1010.4 F 0.0 Fine Mostly clear 30 - - - -
11/08:30pm 27.1 SE 22 25 1010.2 - 0.0 - - - - - - -
11/08:00pm 27.3 SE 23 27 1010.2 - 0.0 - - - - - - -
11/07:30pm 27.3 SE 22 27 1010.1 - 0.0 - - - - - - -
11/07:00pm 27.4 SE 21 25 1009.8 - 0.0 - - - - - - -
11/06:30pm 27.4 SE 22 26 1009.6 - 0.0 - - - - - - -
11/06:00pm 27.4 SE 22 27 1009.5 R 0.0 Fine Partly cloudy 30 3 2.0 7 SE
11/05:30pm 27.9 SE 23 28 1009.2 - 0.0 - - - - - - -
11/05:00pm 28.4 SE 21 26 1008.9 - 0.0 - - - - - - -
11/04:30pm 28.8 SE 23 28 1008.9 - 0.0 - - - - - - -
11/04:00pm 29.0 SE 24 29 1008.6 - 0.0 - - - - - - -
11/03:30pm 29.2 SSE 23 28 1008.4 - 0.0 - - - - - - -
11/03:00pm 29.3 SE 22 26 1008.3 R 0.0 Fine Mostly cloudy 30 3 2.0 7 SE
11/02:30pm 29.4 SE 22 26 1008.5 - 0.0 - - - - - - -
11/02:00pm 29.3 SE 21 24 1008.7 - 0.0 - - - - - - -
11/01:30pm 30.0 SE 21 24 1008.8 - 0.0 - - - - - - -
11/01:00pm 30.3 SE 21 24 1009.1 - 0.0 - - - - - - -
11/12:30pm 30.2 SE 21 24 1009.3 - 0.0 - - - - - - -
11/12:00pm 30.1 SE 19 23 1009.5 F 0.0 Fine Mostly cloudy 30 2 2.0 7 SE
11/11:30am 30.0 SE 19 23 1009.8 - 0.0 - - - - - - -
11/11:00am 30.1 SE 20 23 1010.3 - 0.0 - - - - - - -
11/10:30am 30.1 SE 20 23 1010.6 - 0.0 - - - - - - -
11/10:00am 30.1 SE 20 23 1010.9 - 0.0 - - - - - - -
11/09:30am 29.7 ESE 19 23 1011.1 - 0.0 - - - - - - -
11/09:00am 29.1 ESE 18 21 1011.2 F 0.0 Fine Partly cloudy 30 2 2.0 7 SE
11/08:30am 29.2 ESE 19 22 1011.0 - 0.0 - - - - - - -
11/08:00am 28.3 SE 20 24 1011.1 - 0.0 - - - - - - -
11/07:30am 28.2 SE 19 22 1011.0 - 0.0 - - - - - - -
11/07:00am 28.3 SE 20 22 1011.1 - 0.0 - - - - - - -
11/06:30am 27.9 SE 20 22 1010.9 - 0.0 - - - - - - -
11/06:00am 27.4 ESE 19 22 1010.6 S 0.0 Distant precip. Partly cloudy 30 2 2.0 7 SE
11/05:30am 27.2 ESE 20 22 1010.0 - 0.0 - - - - - - -
11/05:00am 27.2 ESE 20 23 1009.9 - 0.0 - - - - - - -
11/04:30am 27.2 ESE 20 22 1009.7 - 0.0 - - - - - - -
11/04:00am 27.3 ESE 20 24 1009.4 - 0.0 - - - - - - -
11/03:30am 27.1 ESE 20 23 1009.4 - 0.0 - - - - - - -
11/03:00am 27.2 ESE 19 22 1009.5 F 0.0 - - - - - - -
11/02:30am 27.1 ESE 20 23 1009.6 - 0.0 - - - - - - -
11/02:00am 27.4 ESE 19 22 1009.9 - 0.0 - - - - - - -
11/01:30am 27.2 ESE 20 24 1010.1 - 0.0 - - - - - - -
11/01:00am 27.3 ESE 20 24 1010.4 - 0.0 - - - - - - -
11/12:30am 27.4 ESE 22 28 1010.8 - 0.0 - - - - - - -
11/12:00am 27.3 ESE 21 25 1011.0 F 0.0 - - - - - - -
 
Date/Time
EST
Temp
°C
Wind Pressure Rain since
9am
mm
Weather Cloud Vis
km
Sea
Height
m
Swell
Dir  Spd
kts
Gust
kts
hPa Trend Height
m
Period
s
Dir
10/11:30pm 27.4 ESE 22 26 1011.5 - 0.0 - - - - - - -
10/11:00pm 27.5 ESE 22 27 1012.0 - 0.0 - - - - - - -
10/10:30pm 27.6 ESE 22 26 1012.0 - 0.0 - - - - - - -
10/10:00pm 27.6 ESE 22 25 1012.0 - 0.0 - - - - - - -
10/09:30pm 27.6 SE 23 26 1011.8 - 0.0 - - - - - - -
10/09:00pm 27.7 SE 22 26 1011.9 S 0.0 Fine Mostly clear 20 3 2.0 7 SE
10/08:30pm 27.8 SE 22 26 1011.6 - 0.0 - - - - - - -
10/08:00pm 27.6 ESE 23 27 1011.4 - 0.0 - - - - - - -
10/07:30pm 27.8 ESE 24 27 1011.1 - 0.0 - - - - - - -
10/07:00pm 28.0 ESE 21 24 1010.8 - 0.0 - - - - - - -
10/06:30pm 27.9 SE 21 24 1010.7 - 0.0 - - - - - - -
10/06:00pm 28.2 SE 21 23 1010.4 R 0.0 Fine Mostly clear 20 2 1.9 7 SE
10/05:30pm 28.2 ESE 21 23 1010.0 - 0.0 - - - - - - -
10/05:00pm 28.7 ESE 19 22 1009.8 - 0.0 - - - - - - -
10/04:30pm 29.0 ESE 19 22 1009.7 - 0.0 - - - - - - -
10/04:00pm 29.3 SE 21 25 1009.6 - 0.0 - - - - - - -
10/03:30pm 29.9 SE 19 24 1009.7 - 0.0 - - - - - - -
10/03:00pm 29.9 SE 19 22 1009.6 R 0.0 Fine Mostly clear 30 2 1.8 7 SE
10/02:30pm 30.3 SE 18 21 1009.6 - 0.0 - - - - - - -
10/02:00pm 30.5 SE 18 22 1009.9 - 0.0 - - - - - - -
10/01:30pm 30.6 SE 19 22 1010.0 - 0.0 - - - - - - -
10/01:00pm 30.6 ESE 19 23 1010.1 - 0.0 - - - - - - -
10/12:30pm 30.2 ESE 20 23 1010.4 - 0.0 - - - - - - -
10/12:00pm 31.0 SE 20 23 1010.6 R 0.0 Fine Partly cloudy 25 3 1.8 7 SE
10/11:30am 30.3 SE 21 24 1010.7 - 0.0 - - - - - - -
10/11:00am 30.6 ESE 21 23 1011.0 - 0.0 - - - - - - -
10/10:30am 30.2 SE 21 25 1011.1 - 0.0 - - - - - - -
10/10:00am 30.2 SE 21 24 1011.2 - 0.0 - - - - - - -
10/09:30am 30.2 SE 21 24 1011.2 - 0.0 - - - - - - -
10/09:00am 29.5 SE 22 26 1011.3 F 0.0 Fine Mostly clear 25 2 1.7 6 SE
10/08:30am 29.4 SE 21 25 1011.2 - 0.0 - - - - - - -
10/08:00am 28.8 SE 22 25 1011.4 - 0.0 - - - - - - -
10/07:30am 28.6 SE 22 24 1011.2 - 0.0 - - - - - - -
10/07:00am 28.3 SE 23 26 1011.1 - 0.0 - - - - - - -
10/06:30am 28.1 SE 22 26 1010.9 - 0.0 - - - - - - -
10/06:00am 27.6 SE 21 25 1010.5 R 0.0 Distant precip. Partly cloudy 25 3 1.5 6 SE
10/05:30am 27.3 SE 21 24 1010.1 - 0.0 - - - - - - -
10/05:00am 26.9 SE 19 24 1009.7 - 0.0 - - - - - - -
10/04:30am 26.7 SSE 17 23 1009.5 - 0.0 - - - - - - -
10/04:00am 27.6 SE 18 21 1009.5 - 0.0 - - - - - - -
10/03:30am 27.4 SE 19 22 1009.3 - 0.0 - - - - - - -
10/03:00am 27.4 SE 17 19 1009.3 R 0.0 - - - - - - -
10/02:30am 27.3 ESE 17 19 1009.3 - 0.0 - - - - - - -
10/02:00am 27.2 ESE 18 20 1009.3 - 0.0 - - - - - - -
10/01:30am 27.3 ESE 17 20 1009.2 - 0.0 - - - - - - -
10/01:00am 27.4 ESE 17 19 1009.7 - 0.0 - - - - - - -
10/12:30am 27.7 ESE 18 21 1010.0 - 0.0 - - - - - - -
10/12:00am 27.4 ESE 18 21 1010.4 F 0.0 - - - - - - -
 
Date/Time
EST
Temp
°C
Wind Pressure Rain since
9am
mm
Weather Cloud Vis
km
Sea
Height
m
Swell
Dir  Spd
kts
Gust
kts
hPa Trend Height
m
Period
s
Dir
09/11:30pm 27.4 ESE 19 22 1010.8 - 0.0 - - - - - - -
09/11:00pm 27.8 ESE 21 24 1011.3 - 0.0 - - - - - - -
09/10:30pm 27.7 ESE 18 22 1011.6 - 0.0 - - - - - - -
09/10:00pm 27.6 SE 18 20 1011.7 - 0.0 - - - - - - -
09/09:30pm 27.7 ESE 19 21 1011.9 - 0.0 - - - - - - -
09/09:00pm 27.7 ESE 17 20 1011.8 F 0.0 Distant precip. Mostly clear 30 1 1.3 9 SE
09/08:30pm 27.8 ESE 17 20 1011.7 - 0.0 - - - - - - -
09/08:00pm 27.9 ESE 17 20 1011.6 - 0.0 - - - - - - -
09/07:30pm 27.9 ESE 19 22 1011.4 - 0.0 - - - - - - -
09/07:00pm 28.0 ESE 18 21 1011.2 - 0.0 - - - - - - -
09/06:30pm 28.2 ESE 19 21 1011.0 - 0.0 - - - - - - -
09/06:00pm 28.4 ESE 18 20 1010.7 R 0.0 Fine Mostly cloudy 30 1 1.3 9 SE
09/05:30pm 28.8 ESE 17 19 1010.5 - 0.0 - - - - - - -
09/05:00pm 29.0 ESE 17 19 1010.3 - 0.0 - - - - - - -

Other Formats:

Comma delimited format used in spreadsheet applications
http://www.bom.gov.au/fwo/IDQ60701/IDQ60701.94299.axf

JavaScript Object Notation format (JSON) in row-major order
http://www.bom.gov.au/fwo/IDQ60701/IDQ60701.94299.json